Location: Gungolding
(48.9246°N, 11.3502°E)
Time: 10:29:40
(UTC+02:00)

Altair - All Passes

Search period start: 01 April 2020 00:00
Search period end: 11 April 2020 00:00
Orbit: 1501 x 1682 km, 47.2° (Epoch: 31 March)

Date Brightness Start Highest point End Pass type
(mag) Time Alt. Az. Time Alt. Az. Time Alt. Az.
01 Apr - 13:42:28 10° S 13:48:39 20° SE 13:54:44 10° E daylight
01 Apr - 15:42:47 10° SW 15:51:43 52° SSE 16:00:29 10° ENE daylight
01 Apr - 17:46:38 10° WSW 17:55:53 80° S 18:05:05 10° E daylight
01 Apr - 19:51:16 10° W 20:00:24 71° SSW 20:09:33 10° ESE daylight
01 Apr - 21:56:03 10° WNW 22:04:07 36° SW 22:12:18 10° SSE visible
02 Apr - 13:17:54 10° SSE 13:23:39 18° SE 13:29:18 10° E daylight
02 Apr - 15:17:45 10° SW 15:26:37 50° SSE 15:35:20 10° ENE daylight
02 Apr - 17:21:28 10° WSW 17:30:45 79° S 17:39:56 10° E daylight
02 Apr - 19:26:07 10° W 19:35:16 73° SSW 19:44:25 10° ESE daylight
02 Apr - 21:30:51 10° WNW 21:39:04 39° SW 21:47:23 10° SSE visible
02 Apr - 23:39:36 10° WSW 23:41:36 11° WSW 23:43:37 10° SW visible
03 Apr - 12:53:26 10° SSE 12:58:39 16° SE 13:03:47 10° E daylight
03 Apr - 14:52:44 10° SW 15:01:32 47° SSE 15:10:10 10° ENE daylight
03 Apr - 16:56:18 10° WSW 17:05:36 78° S 17:14:46 10° E daylight
03 Apr - 19:00:57 10° W 19:10:08 75° SSW 19:19:17 10° ESE daylight
03 Apr - 21:05:39 10° WNW 21:14:00 41° SW 21:22:26 10° SSE visible
03 Apr - 23:13:19 10° WSW 23:16:38 12° SW 23:19:59 10° SW visible
04 Apr - 12:29:04 10° SSE 12:33:39 15° SE 12:38:12 10° E daylight
04 Apr - 14:27:43 10° SSW 14:36:28 44° SE 14:45:00 10° ENE daylight
04 Apr - 16:31:09 10° WSW 16:40:27 77° SSE 16:49:37 10° E daylight
04 Apr - 18:35:47 10° W 18:44:59 77° SSW 18:54:09 10° ESE daylight
04 Apr - 20:40:28 10° WNW 20:48:57 44° SW 20:57:28 10° SSE visible
04 Apr - 22:47:28 10° W 22:51:40 14° SW 22:55:54 10° SSW visible
05 Apr - 12:04:52 10° SSE 12:08:40 13° SE 12:12:26 10° E daylight
05 Apr - 14:02:44 10° SSW 14:11:23 42° SE 14:19:49 10° ENE daylight
05 Apr - 16:06:00 10° WSW 16:15:19 75° SSE 16:24:28 10° E daylight
05 Apr - 18:10:36 10° W 18:19:51 78° S 18:29:01 10° ESE daylight
05 Apr - 20:15:17 10° WNW 20:23:52 46° SSW 20:32:29 10° SE visible
05 Apr - 22:21:48 10° W 22:26:41 16° SW 22:31:37 10° SSW visible
06 Apr - 11:40:59 10° SE 11:43:42 11° ESE 11:46:22 10° ESE daylight
06 Apr - 13:37:46 10° SSW 13:46:19 39° SE 13:54:38 10° ENE daylight
06 Apr - 15:40:50 10° WSW 15:50:11 73° SSE 15:59:19 10° E daylight
06 Apr - 17:45:26 10° W 17:54:42 79° S 18:03:53 10° ESE daylight
06 Apr - 19:50:07 10° WNW 19:58:48 49° SSW 20:07:30 10° SE daylight
06 Apr - 21:56:16 10° W 22:01:42 17° SW 22:07:11 10° SSW visible
07 Apr - 13:12:49 10° SSW 13:21:15 37° SE 13:29:27 10° ENE daylight
07 Apr - 15:15:41 10° WSW 15:25:02 72° SSE 15:34:10 10° E daylight
07 Apr - 17:20:15 10° W 17:29:33 80° S 17:38:44 10° ESE daylight
07 Apr - 19:24:56 10° WNW 19:33:43 52° SSW 19:42:29 10° SE daylight
07 Apr - 21:30:49 10° W 21:36:42 19° SW 21:42:39 10° S visible
08 Apr - 12:47:54 10° SSW 12:56:11 35° SE 13:04:15 10° E daylight
08 Apr - 14:50:33 10° WSW 14:59:54 70° SSE 15:09:01 10° E daylight
08 Apr - 16:55:04 10° W 17:04:24 81° S 17:13:35 10° E daylight
08 Apr - 18:59:46 10° WNW 19:08:37 54° SSW 19:17:27 10° SE daylight
08 Apr - 21:05:24 10° W 21:11:42 21° SW 21:18:03 10° S visible
09 Apr - 12:23:01 10° SSW 12:31:08 32° SE 12:39:02 10° E daylight
09 Apr - 14:25:24 10° WSW 14:34:46 67° SSE 14:43:53 10° E daylight
09 Apr - 16:29:53 10° W 16:39:16 82° S 16:48:26 10° E daylight
09 Apr - 18:34:35 10° WNW 18:43:32 57° SSW 18:52:25 10° SE daylight
09 Apr - 20:40:02 10° W 20:46:42 23° SW 20:53:25 10° S visible
10 Apr - 11:58:09 10° SSW 12:06:05 30° SE 12:13:48 10° E daylight
10 Apr - 14:00:17 10° WSW 14:09:39 65° SSE 14:18:45 10° E daylight
10 Apr - 16:04:42 10° W 16:14:06 82° S 16:23:17 10° E daylight
10 Apr - 18:09:24 10° WNW 18:18:26 60° SSW 18:27:22 10° SE daylight
10 Apr - 20:14:43 10° W 20:21:42 25° SW 20:28:42 10° S daylight
